RH
64 64 62 59 57 62 77 63 72 47 52 42 42 45 36 30 29 31 28 26 27 26 27 28 28 31 34 34 32 32 37 38 32 31 29 32 39 46 50 47 43 38 29 17
75 61 61 73 64 60 53 52 66 60 62 41 39 33 30 27 28 31 32 28 27 30 28 28 29 39 41 40 38 34 35 38 36 31 28 28 30 34 49 54 51 45 39 32
82 64 65 63 55 52 56 51 48 56 42 36 32 33 28 28 33 34 34 39 40 40 40 35 32 38 41 41 41 40 40 44 45 43 36 33 33 34 36 46 57 54 46 41
91 72 76 46 33 31 49 45 45 42 40 35 33 31 29 30 38 37 39 39 40 41 42 42 42 43 44 44 44 43 44 44 42 45 44 40 40 38 34 38 53 59 55 48
88 83 63 44 37 38 33 34 30 33 40 36 34 34 35 35 40 41 40 41 44 46 48 46 46 47 48 46 48 48 48 43 44 45 49 48 41 42 39 41 51 58 60 59
82 85 84 41 38 36 37 39 30 35 39 40 41 60 53 43 46 46 50 51 54 55 53 52 51 54 53 46 45 49 48 46 47 48 47 45 44 46 46 44 47 56 62 64
94 94 77 54 38 39 50 40 32 38 40 43 51 48 49 46 43 44 54 58 58 52 56 49 46 52 55 50 48 49 50 51 52 52 53 47 50 50 49 48 54 53 53 56
86 93 90 45 46 47 41 41 44 52 53 54 53 52 52 50 51 57 58 58 56 56 50 45 47 53 53 48 47 54 55 56 52 53 53 54 53 48 46 43 43 47 57 57
75 72 46 42 39 39 42 51 55 56 55 55 54 54 57 62 62 62 60 55 53 53 54 50 52 53 57 52 55 55 59 58 57 56 55 56 49 37 33 36 42 51 61 65
51 45 44 42 43 49 53 54 54 56 56 57 61 63 64 63 60 58 54 54 47 47 47 51 55 58 64 64 61 61 61 62 63 58 54 46 43 42 40 38 37 41 51 62
64 53 45 43 46 52 55 55 55 53 53 56 58 64 65 59 58 56 48 45 48 55 58 62 63 59 55 58 64 63 61 61 63 58 47 45 47 49 55 54 58 55 53 57
64 49 56 58 56 57 56 56 56 57 57 57 62 64 64 61 56 51 46 46 47 53 62 62 58 54 56 60 62 57 53 55 54 52 50 50 49 46 52 58 52 56 65 55
58 59 62 59 58 57 58 59 58 62 63 67 65 55 46 43 46 56 54 57 56 53 56 58 56 53 52 54 54 54 54 52 50 50 50 53 55 56 50 51 59 64 71 83
54 57 59 59 59 57 59 62 59 59 65 61 55 54 53 50 36 34 39 51 63 70 61 56 54 50 52 50 48 52 55 59 60 66 74 77 76 79 84 75 81 78 74 96
65 63 62 60 58 64 60 56 58 59 63 67 64 56 51 52 47 38 38 40 42 44 62 71 56 57 46 63 86 86 86 87 87 89 89 86 87 94 95 95 90 82 74 73
63 62 60 64 67 73 77 77 80 78 70 60 55 51 41 37 38 41 41 36 33 38 35 54 76 56 56 76 78 81 88 90 88 92 98 98 94 88 86 85 88 85 83 84
67 72 73 70 74 73 74 71 70 69 67 58 46 42 54 48 40 31 25 24 29 28 29 38 53 75 54 66 93 94 87 96 100 98 97 92 86 81 82 81 84 81 81 87
83 78 76 73 70 69 61 54 41 34 32 34 42 45 40 39 37 35 37 34 27 23 21 26 46 66 85 87 84 97 99 100 100 100 100 91 84 82 81 76 72 78 83 88
42 39 38 37 40 48 50 48 47 50 35 26 36 42 40 36 38 34 34 42 44 32 20 23 36 51 55 62 76 91 92 95 99 100 100 100 99 94 87 82 80 71 76 87
34 25 27 24 21 21 21 19 17 25 25 34 43 55 66 61 54 47 39 44 41 39 29 28 29 35 54 62 66 69 74 63 65 63 91 86 96 100 100 96 88 82 78 79
33 34 35 30 30 28 26 38 50 42 33 34 46 46 54 52 48 48 44 45 24 38 34 30 40 42 53 67 70 69 76 76 75 72 72 75 75 75 83 98 98 91 86 84
37 41 49 49 47 46 48 45 39 40 42 44 42 39 42 41 37 40 37 38 30 42 39 41 46 52 53 55 62 68 79 76 77 80 79 76 78 81 85 100 100 100 94 90
44 45 47 47 48 49 50 50 47 44 45 45 48 51 50 51 54 66 60 30 49 56 52 51 42 39 35 38 45 46 46 44 45 59 72 79 83 84 88 96 98 99 99 98
48 47 47 47 48 53 54 50 46 44 42 42 50 52 61 65 64 56 57 54 60 56 58 56 48 34 32 30 30 30 30 36 39 39 46 75 83 88 90 98 99 100 100 99
48 48 49 50 51 52 53 53 52 53 51 55 52 58 62 63 73 63 68 64 68 62 53 51 35 30 26 24 25 25 25 26 32 45 42 50 75 87 92 96 97 100 99 99
50 52 55 58 60 61 62 66 71 67 66 66 54 56 62 65 69 78 79 73 78 68 58 47 36 31 28 26 26 24 23 23 24 30 54 54 60 82 86 91 98 100 99 99
54 57 63 62 56 64 69 73 75 75 75 77 77 64 62 68 74 83 80 74 77 73 63 48 41 41 40 35 32 31 29 28 29 30 50 63 58 62 82 88 92 96 98 100
Wind_Speed
5 7 5 7 8 9 10 8 7 3 6 7 8 9 12 10 11 11 9 9 11 14 17 19 21 21 23 23 22 20 20 23 23 20 20 21 22 24 25 25 23 21 21 20
4 6 5 7 11 12 14 13 11 14 21 16 23 8 6 12 16 16 12 11 15 19 18 23 26 25 28 27 28 27 25 25 27 27 25 25 24 24 26 27 26 25 23 22
5 4 6 8 8 12 6 6 9 11 13 8 2 9 11 17 19 13 13 16 22 23 24 26 26 31 35 35 33 32 30 32 32 31 30 28 27 26 28 28 27 28 27 25
3 3 2 5 3 5 9 6 9 7 7 6 12 8 4 11 10 14 19 27 30 29 30 31 33 35 35 33 33 33 31 34 32 28 30 29 30 29 28 28 29 30 29 28
2 3 8 1 1 4 3 3 3 2 5 8 11 11 13 13 14 21 26 30 31 32 32 32 33 33 33 33 33 35 36 34 30 25 28 30 30 30 29 29 28 28 30 30
0 2 5 1 1 4 3 1 1 10 5 2 5 3 4 11 21 31 30 29 31 30 33 35 36 33 32 33 35 35 34 33 30 26 26 29 29 29 29 27 27 28 29 30
4 3 7 5 5 4 2 3 6 10 10 7 3 8 20 27 29 31 31 31 31 37 33 35 34 32 32 34 34 34 32 32 31 30 28 26 24 25 26 27 28 30 31 30
4 4 9 6 5 5 3 4 5 9 10 13 16 20 25 29 31 30 31 35 39 33 32 33 32 30 30 32 31 30 30 32 34 28 26 21 20 21 23 25 28 30 31 32
9 6 5 12 2 5 9 7 9 14 18 17 19 23 25 24 25 31 37 35 31 32 31 30 29 26 27 29 28 28 30 30 25 25 25 23 23 22 22 20 22 25 28 30
1 5 10 5 11 4 13 17 18 15 15 16 18 19 22 29 32 29 28 31 31 31 32 32 30 29 29 29 28 28 29 25 22 22 22 22 21 20 20 19 18 20 23 26
5 8 18 19 12 24 23 23 21 24 24 26 28 24 24 22 24 26 26 27 29 30 30 31 30 30 29 27 26 24 22 22 21 20 20 21 20 19 19 19 18 18 18 20
14 19 13 18 25 20 22 21 20 25 28 24 16 14 17 19 20 21 23 25 26 27 28 29 29 28 26 23 21 20 19 18 17 17 16 16 18 19 18 19 20 20 16 18
22 21 22 22 22 16 18 22 23 20 16 12 13 13 14 17 19 20 20 21 23 26 27 27 26 25 22 18 17 16 16 15 15 15 15 15 14 15 17 15 15 15 17 18
22 26 20 21 15 19 22 19 16 14 10 11 13 15 17 20 20 19 20 20 22 24 25 25 24 23 20 16 14 13 13 12 12 12 12 13 14 16 19 20 22 21 17 20
23 18 10 14 15 14 12 12 12 12 14 17 17 19 21 23 22 22 21 22 22 24 23 23 23 20 19 12 11 12 13 14 16 19 20 19 17 18 19 20 22 23 22 19
10 9 12 10 12 13 11 13 14 15 16 19 21 22 22 22 23 23 23 24 27 28 28 24 22 19 15 12 15 14 13 12 14 18 19 18 17 16 16 18 21 21 21 19
5 5 5 9 11 13 14 15 17 21 23 25 25 25 25 25 26 27 27 27 27 28 28 26 24 17 17 20 19 19 24 16 10 11 14 17 17 17 17 19 20 19 18 15
2 5 8 10 14 15 18 19 20 23 26 28 28 29 29 29 30 31 31 30 30 30 29 26 22 21 18 16 22 26 30 24 22 16 16 17 18 19 19 20 21 20 19 17
10 11 12 14 16 17 21 25 29 32 33 35 35 33 32 32 32 32 32 33 34 33 31 26 25 22 23 22 25 33 28 29 29 26 23 24 25 23 23 22 23 22 21 20
24 25 20 18 18 20 23 24 29 33 36 37 36 37 38 38 36 35 34 35 34 32 31 28 28 27 24 24 23 27 28 28 31 32 32 33 30 29 26 25 24 24 22 21
39 27 22 23 26 28 30 31 32 34 36 36 37 38 37 39 37 35 36 37 37 32 28 28 25 25 25 26 26 21 23 24 25 27 28 29 30 29 28 26 26 25 24 21
32 31 30 31 32 35 35 33 35 39 42 42 40 37 36 37 36 34 34 35 35 30 26 26 24 22 23 24 23 22 20 22 24 24 24 25 24 24 25 23 24 24 23 21
33 33 32 33 36 35 36 38 41 42 43 42 39 36 35 36 34 34 36 32 32 30 25 23 20 21 22 23 23 24 24 23 23 23 24 24 24 22 22 23 21 23 22 22
37 37 37 38 38 38 41 42 38 37 36 36 36 36 34 35 34 33 32 30 27 26 24 21 21 21 22 21 20 21 22 24 25 25 25 23 24 23 22 21 20 21 22 22
40 40 41 42 42 44 44 43 42 41 38 36 35 34 32 31 30 32 29 28 27 22 24 19 17 18 18 17 18 19 21 23 24 24 24 24 24 24 22 21 20 20 21 21
41 43 42 40 41 43 44 42 40 40 38 37 36 35 34 33 31 30 29 28 28 22 21 19 16 16 18 17 18 19 20 22 24 24 24 24 24 24 23 22 21 19 21 20
45 43 38 39 40 39 38 38 36 38 38 38 40 34 31 32 34 33 29 29 28 25 21 21 18 16 17 19 19 20 22 23 24 23 22 23 23 24 22 21 22 22 21 22
Wind_Direction
261 258 243 231 230 222 209 210 199 199 247 240 278 293 316 319 341 337 334 333 341 335 328 330 331 330 333 336 339 326 314 311 313 312 306 300 290 282 277 275 277 280 283 286
282 279 268 260 245 229 234 236 250 259 274 278 280 310 322 326 334 327 318 338 347 338 318 316 318 324 326 324 321 319 317 314 311 303 302 301 298 291 280 274 272 272 276 280
260 315 329 292 234 223 197 212 209 231 242 270 282 318 314 328 337 345 343 335 330 329 322 318 314 316 316 316 314 312 308 309 308 303 295 294 294 291 286 280 274 270 270 272
265 7 264 235 245 193 189 231 229 255 244 249 281 306 334 330 354 337 332 330 324 321 315 311 308 309 311 308 304 304 302 305 303 298 297 295 291 287 287 283 277 270 268 267
218 227 295 6 234 144 170 275 323 109 66 69 29 337 288 298 324 327 320 313 314 315 317 315 312 315 314 307 306 305 303 308 307 297 294 293 290 286 287 284 280 274 271 269
40 231 249 310 223 121 91 243 31 67 52 7 330 290 277 308 311 314 315 313 315 317 318 315 315 317 314 309 308 306 307 307 304 300 297 290 288 288 286 281 280 279 275 270
227 257 285 258 176 150 158 211 320 325 312 308 249 270 305 315 318 319 318 318 317 321 316 313 315 318 314 308 306 308 305 303 300 301 299 294 287 285 283 282 282 280 277 274
183 211 261 173 130 174 205 307 313 18 356 332 318 313 315 317 318 317 316 317 319 320 318 317 318 317 313 308 311 309 303 298 300 299 298 290 286 283 283 284 284 282 280 278
186 208 266 181 301 341 342 35 352 336 326 319 313 315 317 317 317 314 315 318 322 322 321 321 325 323 317 315 313 309 306 304 302 304 299 291 288 286 283 283 285 286 285 284
169 236 237 242 314 32 347 339 334 334 330 323 320 318 312 313 314 319 321 323 325 324 324 322 326 323 321 319 314 308 307 306 303 300 295 291 290 291 290 288 292 287 287 288
263 290 296 287 307 325 323 326 323 319 317 317 317 316 317 319 321 322 323 327 328 325 322 322 324 322 320 317 315 312 309 306 301 300 299 299 295 292 290 293 289 285 288 289
267 281 282 294 307 309 309 310 311 313 313 315 317 320 320 320 324 327 332 336 335 333 329 327 327 328 328 323 320 318 317 316 309 304 301 300 299 298 293 290 292 291 290 301
263 279 284 292 296 294 299 306 311 309 310 312 320 328 333 332 332 331 331 334 340 339 336 332 329 329 330 328 326 323 320 318 313 310 310 309 307 308 313 313 302 288 285 288
283 286 282 288 291 300 306 306 304 304 307 314 320 321 322 326 327 331 335 334 333 333 336 332 330 331 325 324 326 327 327 325 321 319 316 315 316 321 320 315 312 309 302 299
261 259 269 293 297 298 301 304 308 311 315 316 323 324 322 320 325 324 325 329 328 326 328 333 328 327 321 319 329 332 334 329 319 312 305 304 305 304 308 304 301 301 300 292
224 287 313 316 310 310 307 305 308 309 314 318 318 321 317 318 317 317 322 327 324 323 326 319 324 319 308 307 304 311 330 347 357 1 353 328 312 312 319 321 317 314 312 312
306 339 336 316 323 320 313 313 315 315 313 311 313 316 313 315 315 320 325 326 319 317 318 320 309 319 315 293 291 295 295 284 313 335 340 340 338 331 324 317 315 317 318 321
333 313 306 300 304 307 310 311 313 312 310 309 310 311 313 315 316 319 322 321 317 315 315 322 313 296 296 307 309 294 285 283 296 301 315 324 330 333 331 325 320 318 317 317
20 353 336 322 313 312 314 313 313 314 314 312 310 308 307 306 310 314 316 313 313 315 317 317 311 305 299 294 292 304 299 291 294 293 298 308 310 316 320 326 331 320 315 316
343 331 321 315 306 304 304 304 302 299 299 303 306 305 304 305 309 309 311 306 305 312 313 311 307 306 303 304 290 299 294 289 284 285 286 294 295 297 304 310 318 325 316 309
316 310 293 292 290 296 298 300 300 301 302 299 299 301 303 304 304 305 306 304 302 310 309 305 302 301 302 303 299 295 298 297 292 291 291 294 294 292 291 296 303 312 318 308
301 300 295 298 298 297 295 304 307 302 300 302 301 301 301 300 302 300 300 299 302 307 304 301 303 301 299 299 301 305 299 296 296 297 302 302 304 304 299 289 289 298 309 306
298 299 295 294 293 294 298 297 297 301 301 301 301 300 297 299 299 298 299 302 305 305 297 295 301 304 305 299 300 303 305 306 305 305 303 303 306 307 302 300 290 287 294 299
299 300 299 298 297 292 290 294 295 298 296 297 298 300 300 299 299 299 304 304 300 298 289 291 298 302 300 303 305 305 305 304 302 301 301 303 304 303 300 297 292 278 282 290
299 299 298 296 294 293 295 297 298 297 300 299 300 302 303 304 303 303 305 298 296 289 281 288 293 298 297 300 306 310 312 310 308 305 299 296 298 300 298 295 295 282 275 281
296 295 295 294 292 293 292 292 288 295 295 295 303 304 306 307 306 304 303 297 296 284 275 282 287 295 299 302 307 312 316 319 315 307 300 296 292 291 293 291 288 280 274 278
291 292 292 296 297 296 293 291 290 291 295 294 297 301 303 306 307 306 304 297 293 282 270 271 276 285 297 302 306 309 313 317 323 320 310 302 296 288 287 285 282 277 265 266